Погода в Сорочино

Россия / Омская область     55°06′35″N   74°48′35″E
темп.,
°C
ветер,
м/с
пор.,
м/с
влажн.,
%
обл.,
%
осадки,
мм/ч
давл.,
гПа
погр.,
м
11 апреля, вс
вс1100:000в3492100 0.0 1042141
03:000в3389100 0.0 104293
06:000в2290100 0.0 104361
09:00+1юв2296100 0.0 104334
12:00+1ююз11100100 0.0 104311
15:00+2юз11100100 0.0 104218
18:00+1юз1110094 0.0 104121
21:00−1ююз239897 0.0 1041115
12 апреля, пн
пн1200:00−1юз3599100 0.0 1039181
03:00−1юз3698100 0.0 1038220
06:00−1юз4896100 0.0 1037213
09:00+1юз499065 0.0 1035229
12:00+2юз599878 0.0 1034224
15:00+5зюз4109290 0.0 1033292
18:00+4з3893100 0.0 1033147
21:00+3сз3998100 0.4 1033201
13 апреля, вт
вт1300:00+2ссз3899100 0.4 1035166
03:00+1ссз3797100 0.0 1036117
06:00−1ссз35932 0.0 103782
09:00+2ссз34840 0.0 1038163
12:00+6сз46670 0.0 1039627
15:00+8сз565799 0.0 1038839
18:00+7сз47665 0.0 1038417
21:00+4зсз34795 0.0 103844
14 апреля, ср
ср1400:00+3з34805 0.0 103754
03:00+2з36825 0.0 103681
06:00+2зюз378499 0.0 1036100
09:00+5зюз5975100 0.0 1035301
12:00+9зюз6960100 0.0 1032595
15:00+12зюз7946100 0.0 1030866
18:00+11з51053100 0.0 1028492
21:00+7з410706 0.0 1027150
15 апреля, чт
чт1500:00+6з48785 0.0 1026137
03:00+5з36835 0.0 102588
06:00+5з34861 0.0 102454
09:00+9з36800 0.0 1024205
12:00+14з45710 0.0 1022587
15:00+16з56625 0.0 10201297
18:00+16з46575 0.0 1019951
21:00+12зюз47765 0.0 101897